KE8AFF-13 Weather Reports


time (UTC)temp
C
wind
direction
speed
KPH
gust
KPH
rain 1hr
cm
rain 24hr
cm
rain mn
cm
humidity
%
barometer
mb
20260508154938 12 228 9.7 12.9 0.00 0.05 0.05 72 1013.3
20260508154436 12 218 6.4 11.3 0.00 0.05 0.05 72 1013.5
20260508153932 12 239 8.0 12.9 0.00 0.05 0.05 72 1013.5
20260508153430 12 232 3.2 11.3 0.00 0.05 0.05 72 1013.2
20260508152925 12 219 4.8 8.0 0.00 0.05 0.05 71 1013.5
20260508152423 12 224 6.4 12.9 0.00 0.05 0.05 71 1013.7
20260508151919 12 223 4.8 9.7 0.00 0.05 0.05 71 1013.3
20260508151416 12 198 3.2 4.8 0.00 0.05 0.05 70 1013.6
20260508150912 12 236 4.8 9.7 0.00 0.05 0.05 69 1013.5
20260508150408 12 229 4.8 8.0 0.00 0.05 0.05 70 1013.5
20260508145905 12 249 9.7 14.5 0.00 0.05 0.05 69 1013.6
20260508145401 12 235 8.0 12.9 0.00 0.05 0.05 69 1013.5
20260508144858 12 230 8.0 14.5 0.00 0.05 0.05 68 1013.3
20260508144356 12 200 3.2 8.0 0.00 0.05 0.05 68 1013.1
20260508143853 12 259 3.2 8.0 0.00 0.05 0.05 68 1013.2
20260508143351 12 205 1.6 4.8 0.00 0.05 0.05 68 1013.5
20260508142847 12 235 8.0 16.1 0.00 0.05 0.05 67 1013.5
20260508142344 12 239 12.9 16.1 0.00 0.05 0.05 66 1013.3
20260508141840 12 222 8.0 14.5 0.00 0.05 0.05 66 1013.3
20260508141337 12 243 4.8 12.9 0.00 0.05 0.05 66 1013.6
20260508140835 12 236 4.8 9.7 0.00 0.05 0.05 66 1013.3
20260508140331 12 251 6.4 11.3 0.00 0.05 0.05 67 1013.3
20260508135827 12 207 8.0 9.7 0.00 0.05 0.05 67 1013.5
20260508135324 12 221 1.6 11.3 0.00 0.05 0.05 67 1013.5
20260508134820 12 251 6.4 14.5 0.00 0.05 0.05 68 1013.5
20260508134317 12 236 6.4 11.3 0.00 0.05 0.05 68 1013.7
20260508133813 12 223 4.8 9.7 0.00 0.05 0.05 69 1013.5
20260508133312 12 257 4.8 14.5 0.00 0.05 0.05 69 1013.6
20260508132808 11 253 4.8 11.3 0.00 0.05 0.05 71 1013.7
20260508132306 11 224 8.0 11.3 0.00 0.05 0.05 72 1013.6
20260508131756 11 218 4.8 9.7 0.00 0.05 0.05 73 1013.6
20260508131252 11 224 12.9 16.1 0.00 0.05 0.05 72 1013.6
20260508130749 11 212 1.6 11.3 0.00 0.05 0.05 73 1013.6
20260508130246 11 224 11.3 11.3 0.00 0.05 0.05 73 1013.5
20260508125742 11 201 3.2 9.7 0.00 0.05 0.05 73 1013.6
20260508125238 11 223 8.0 11.3 0.00 0.05 0.05 72 1013.6
20260508124737 10 231 4.8 11.3 0.00 0.05 0.05 72 1013.6
20260508124233 10 235 3.2 8.0 0.00 0.05 0.05 72 1013.6
20260508123732 10 245 4.8 12.9 0.00 0.05 0.05 72 1013.3
20260508123229 10 275 6.4 9.7 0.00 0.05 0.05 72 1013.6
20260508122725 10 222 8.0 12.9 0.00 0.05 0.05 72 1013.6
20260508122222 10 217 6.4 12.9 0.00 0.05 0.05 72 1013.6
20260508121720 10 229 9.7 14.5 0.00 0.05 0.05 73 1013.6
20260508121219 10 212 11.3 12.9 0.00 0.05 0.05 73 1013.3
20260508120715 10 229 1.6 9.7 0.00 0.05 0.05 74 1013.2
20260508120213 10 204 4.8 12.9 0.00 0.05 0.05 73 1013.3
20260508115711 9 199 4.8 11.3 0.00 0.05 0.05 74 1013.3
20260508115207 9 211 4.8 8.0 0.00 0.05 0.05 74 1013.1
20260508114704 9 220 8.0 11.3 0.00 0.05 0.05 74 1013.0
20260508114201 9 216 6.4 9.7 0.00 0.05 0.05 74 1013.0
20260508113658 8 222 6.4 12.9 0.00 0.05 0.05 74 1013.0
20260508113156 8 228 8.0 9.7 0.00 0.05 0.05 75 1013.2
20260508112652 8 217 3.2 8.0 0.00 0.05 0.05 76 1013.0
20260508112149 8 223 4.8 14.5 0.00 0.05 0.05 76 1012.9
20260508111645 8 226 4.8 9.7 0.00 0.05 0.05 77 1012.8
20260508111143 8 214 6.4 12.9 0.00 0.05 0.05 77 1013.0
20260508110640 8 222 4.8 8.0 0.00 0.05 0.05 78 1013.0
20260508110137 7 207 4.8 9.7 0.00 0.05 0.05 78 1013.0
20260508105631 7 200 8.0 11.3 0.00 0.05 0.05 79 1012.9
20260508105129 7 232 8.0 12.9 0.00 0.05 0.05 79 1013.0
20260508104627 7 211 4.8 11.3 0.00 0.05 0.05 80 1013.1
20260508104123 7 232 4.8 9.7 0.00 0.05 0.05 80 1012.9
20260508103621 7 213 4.8 9.7 0.00 0.05 0.05 80 1013.0
20260508103118 7 203 4.8 12.9 0.00 0.05 0.05 81 1012.9
20260508102615 7 205 6.4 9.7 0.00 0.05 0.05 81 1012.6
20260508102113 7 237 6.4 9.7 0.00 0.05 0.05 82 1012.7
20260508101610 7 211 4.8 9.7 0.00 0.05 0.05 82 1012.8
20260508101107 7 226 6.4 8.0 0.00 0.05 0.05 82 1012.6
20260508100605 7 212 6.4 8.0 0.00 0.05 0.05 82 1012.7
20260508095559 7 189 4.8 8.0 0.00 0.05 0.05 83 1012.7
20260508095055 7 212 4.8 9.7 0.00 0.05 0.05 84 1012.5
20260508094553 7 205 4.8 8.0 0.00 0.05 0.05 85 1012.5
20260508094049 7 209 3.2 4.8 0.00 0.05 0.05 86 1012.4
20260508093547 7 220 3.2 4.8 0.00 0.05 0.05 86 1012.7
20260508093045 7 202 3.2 4.8 0.00 0.05 0.05 87 1012.7
20260508092541 7 194 4.8 8.0 0.00 0.05 0.05 88 1012.6
20260508092040 7 215 1.6 4.8 0.00 0.05 0.05 88 1012.6
20260508091537 7 204 3.2 4.8 0.00 0.05 0.05 89 1012.6
20260508091034 7 213 3.2 4.8 0.00 0.05 0.05 89 1012.6
20260508090532 7 209 1.6 8.0 0.00 0.05 0.05 89 1012.7
20260508090028 7 196 3.2 4.8 0.00 0.05 0.05 90 1012.7
20260508085525 7 204 3.2 4.8 0.00 0.05 0.05 90 1012.8
20260508085022 7 212 4.8 4.8 0.00 0.05 0.05 91 1012.9
20260508084519 7 214 3.2 3.2 0.00 0.05 0.05 92 1012.6
20260508084016 7 216 3.2 3.2 0.00 0.05 0.05 92 1012.8
20260508083513 7 194 3.2 4.8 0.00 0.05 0.05 92 1012.9
20260508083009 7 199 3.2 9.7 0.00 0.05 0.05 93 1012.7
20260508082505 7 210 6.4 8.0 0.00 0.05 0.05 93 1012.5
20260508082003 7 213 6.4 8.0 0.00 0.05 0.05 94 1012.8
20260508081500 7 174 4.8 4.8 0.00 0.05 0.05 94 1012.8
20260508080955 7 209 3.2 3.2 0.00 0.05 0.05 94 1012.6
20260508080454 7 212 4.8 4.8 0.00 0.05 0.05 93 1012.6
20260508075951 7 191 4.8 4.8 0.00 0.05 0.05 93 1012.7
20260508075448 7 205 1.6 3.2 0.00 0.05 0.05 93 1012.7
20260508074946 7 219 1.6 1.6 0.00 0.05 0.05 93 1012.8
20260508074443 7 223 3.2 3.2 0.00 0.05 0.05 93 1013.0
20260508073939 7 199 4.8 4.8 0.00 0.05 0.05 92 1012.9
20260508073437 7 217 1.6 3.2 0.00 0.05 0.05 92 1013.1
20260508072933 7 209 0.0 1.6 0.00 0.05 0.05 91 1013.1
20260508072424 7 205 0.0 1.6 0.00 0.05 0.05 91 1013.2
20260508071922 8 213 0.0 0.0 0.00 0.05 0.05 90 1013.3
20260508071419 8 199 0.0 1.6 0.00 0.05 0.05 90 1013.5
20260508070917 8 190 1.6 3.2 0.00 0.05 0.05 90 1013.7
20260508070415 8 346 3.2 8.0 0.00 0.05 0.05 91 1013.6
20260508065912 8 356 3.2 9.7 0.00 0.05 0.05 90 1014.0
20260508065405 8 346 1.6 4.8 0.00 0.05 0.05 90 1013.5
20260508064902 8 223 0.0 1.6 0.00 0.05 0.05 89 1013.2
20260508064359 8 210 0.0 0.0 0.00 0.05 0.05 88 1013.3
20260508063857 8 209 0.0 1.6 0.00 0.05 0.05 88 1013.3
20260508063354 8 197 1.6 3.2 0.00 0.05 0.05 87 1013.5
20260508062851 8 195 3.2 3.2 0.00 0.05 0.05 86 1013.5
20260508062349 8 207 0.0 1.6 0.00 0.05 0.05 85 1013.7
20260508061846 8 217 0.0 3.2 0.00 0.05 0.05 85 1014.1
20260508061343 8 225 0.0 3.2 0.00 0.05 0.05 85 1014.0
20260508060839 8 219 3.2 4.8 0.05 0.05 0.05 83 1014.0
20260508060337 8 219 6.4 8.0 0.05 0.05 0.05 83 1014.0
20260508055832 8 212 1.6 1.6 0.00 0.05 0.05 82 1014.2
20260508055330 8 200 0.0 0.0 0.05 0.05 0.05 82 1014.5
20260508054826 8 234 1.6 3.2 0.05 0.05 0.05 82 1014.4
20260508054324 8 247 4.8 8.0 0.00 0.05 0.05 81 1014.3
20260508053821 8 220 4.8 4.8 0.00 0.05 0.05 82 1014.1
20260508053319 8 220 6.4 11.3 0.05 0.05 0.05 82 1014.4
20260508052815 9 202 3.2 4.8 0.13 0.03 0.03 79 1014.4
20260508052313 9 244 8.0 16.1 0.18 0.03 0.03 77 1014.5
20260508051808 9 254 8.0 11.3 0.05 0.00 0.00 77 1014.5
20260508051304 9 256 3.2 3.2 0.00 0.00 0.00 78 1014.1
20260508050801 9 225 1.6 1.6 0.00 0.00 0.00 76 1013.9
20260508050258 9 226 0.0 0.0 0.00 0.00 0.00 75 1013.6
20260508045754 9 231 0.0 1.6 0.00 0.00 0.00 75 1013.6
20260508045251 9 220 1.6 8.0 0.00 0.00 0.00 75 1013.5
20260508044749 9 216 3.2 3.2 0.00 0.00 0.00 77 1013.2
20260508044246 9 223 1.6 8.0 0.00 0.00 0.00 77 1013.0
20260508043741 9 198 4.8 8.0 0.00 0.00 0.00 76 1013.1
20260508043239 9 210 1.6 3.2 0.00 0.00 0.00 77 1013.2
20260508042735 9 218 1.6 4.8 0.00 0.00 0.00 77 1013.2
20260508042233 9 207 3.2 3.2 0.00 0.00 0.00 77 1013.1
20260508041730 9 213 1.6 4.8 0.00 0.00 0.00 76 1013.3
20260508041226 9 200 3.2 4.8 0.00 0.00 0.00 75 1013.2
20260508040723 9 205 3.2 3.2 0.00 0.00 0.00 74 1013.5
20260508040220 9 218 1.6 3.2 0.00 0.00 0.00 75 1013.5
20260508035717 9 187 1.6 1.6 0.00 0.00 0.00 74 1013.5
20260508035215 9 216 0.0 1.6 0.00 0.00 0.00 74 1013.6
20260508034711 9 207 0.0 1.6 0.00 0.00 0.00 73 1013.6
20260508034208 9 214 0.0 0.0 0.00 0.00 0.00 73 1013.5
20260508033705 9 218 0.0 0.0 0.00 0.00 0.00 72 1013.6
20260508033204 9 218 0.0 1.6 0.00 0.00 0.00 72 1013.5
20260508032701 9 212 0.0 1.6 0.00 0.00 0.00 70 1013.3
20260508032158 9 201 1.6 3.2 0.00 0.00 0.00 69 1013.5
20260508031655 10 216 1.6 1.6 0.00 0.00 0.00 69 1013.5
20260508031150 10 198 1.6 1.6 0.00 0.00 0.00 66 1013.3
20260508030647 10 204 0.0 0.0 0.00 0.00 0.00 66 1013.8
20260508030145 10 237 1.6 4.8 0.00 0.00 0.00 65 1013.5
20260508025641 10 217 0.0 0.0 0.00 0.00 0.00 65 1014.0
20260508025138 10 235 1.6 3.2 0.00 0.00 0.00 64 1013.9
20260508024634 10 305 3.2 4.8 0.00 0.00 0.00 63 1013.8
20260508024132 10 237 0.0 3.2 0.00 0.00 0.00 63 1013.8
20260508023628 10 304 3.2 3.2 0.00 0.00 0.00 63 1013.8
20260508023126 10 221 0.0 1.6 0.00 0.00 0.00 62 1013.5
20260508022621 10 217 0.0 1.6 0.00 0.00 0.00 61 1013.5
20260508022119 10 218 1.6 1.6 0.00 0.00 0.00 62 1013.6
20260508021614 10 217 0.0 1.6 0.00 0.00 0.00 61 1013.3
20260508021110 10 217 0.0 0.0 0.00 0.00 0.00 61 1013.3
20260508020608 10 214 0.0 0.0 0.00 0.00 0.00 61 1013.3
20260508020105 10 215 0.0 0.0 0.00 0.00 0.00 60 1013.3
20260508015603 10 213 0.0 1.6 0.00 0.00 0.00 60 1013.3
20260508015059 11 217 0.0 0.0 0.00 0.00 0.00 59 1013.1
20260508014555 11 217 0.0 0.0 0.00 0.00 0.00 59 1013.3
20260508014052 11 218 0.0 1.6 0.00 0.00 0.00 58 1013.5
20260508013548 11 228 1.6 3.2 0.00 0.00 0.00 58 1013.5
20260508013045 11 225 3.2 3.2 0.00 0.00 0.00 57 1013.1
20260508012543 11 209 1.6 3.2 0.00 0.00 0.00 57 1012.9
20260508012040 11 209 1.6 3.2 0.00 0.00 0.00 56 1013.2
20260508011538 11 266 6.4 9.7 0.00 0.00 0.00 55 1013.1
20260508011035 11 235 8.0 12.9 0.00 0.00 0.00 54 1013.5
20260508010532 11 236 4.8 11.3 0.00 0.00 0.00 53 1013.2
20260508010030 12 223 1.6 3.2 0.00 0.00 0.00 53 1013.0
20260508005526 12 224 4.8 12.9 0.00 0.00 0.00 52 1013.3
20260508005023 12 319 3.2 20.9 0.00 0.00 0.00 51 1013.2
20260508004519 12 326 9.7 12.9 0.00 0.00 0.00 49 1013.2
20260508004015 12 209 8.0 12.9 0.00 0.00 0.00 50 1013.1
20260508003512 12 228 3.2 4.8 0.00 0.00 0.00 51 1012.9
20260508003010 12 222 3.2 3.2 0.00 0.00 0.00 52 1012.7
20260508002505 12 231 1.6 3.2 0.00 0.00 0.00 51 1012.7
20260508002003 12 222 3.2 4.8 0.00 0.00 0.00 51 1012.6
20260508001458 12 218 1.6 3.2 0.00 0.00 0.00 51 1012.5
20260508000955 12 237 3.2 4.8 0.00 0.00 0.00 50 1012.4
20260508000451 12 223 1.6 3.2 0.00 0.00 0.00 49 1012.6
20260507235948 12 225 1.6 3.2 0.00 0.00 0.00 48 1012.5
20260507235445 12 229 1.6 4.8 0.00 0.00 0.00 49 1012.3
20260507234943 12 212 3.2 8.0 0.00 0.00 0.00 48 1012.6
20260507234439 12 254 3.2 4.8 0.00 0.00 0.00 47 1012.3
20260507233935 12 216 1.6 1.6 0.00 0.00 0.00 47 1012.4
20260507233432 12 262 3.2 3.2 0.00 0.00 0.00 46 1012.5
20260507232931 12 245 4.8 9.7 0.00 0.00 0.00 46 1012.2
20260507232427 13 352 6.4 11.3 0.00 0.00 0.00 45 1012.2
20260507231924 13 224 1.6 3.2 0.00 0.00 0.00 45 1012.3
20260507231420 13 272 4.8 9.7 0.00 0.00 0.00 44 1012.2
20260507230918 13 232 6.4 9.7 0.00 0.00 0.00 45 1012.4
20260507230415 13 313 4.8 11.3 0.00 0.00 0.00 45 1012.3
20260507225914 13 250 3.2 9.7 0.00 0.00 0.00 46 1012.4
20260507225411 13 291 4.8 8.0 0.00 0.00 0.00 47 1012.4
20260507224907 13 196 3.2 9.7 0.00 0.00 0.00 46 1012.6
20260507224403 13 257 4.8 8.0 0.00 0.00 0.00 45 1012.4
20260507223900 14 251 9.7 14.5 0.00 0.00 0.00 43 1012.6
20260507223350 14 253 4.8 12.9 0.00 0.00 0.00 45 1012.4
20260507222848 14 217 8.0 12.9 0.00 0.00 0.00 44 1012.6
20260507222343 13 236 4.8 8.0 0.00 0.00 0.00 46 1012.6
20260507221840 13 296 6.4 9.7 0.00 0.00 0.00 46 1012.8
20260507221337 13 330 4.8 11.3 0.00 0.00 0.00 45 1012.8
20260507220832 13 336 11.3 12.9 0.00 0.00 0.00 46 1012.5
20260507220331 13 309 6.4 9.7 0.00 0.00 0.00 45 1012.7
20260507215827 13 251 4.8 9.7 0.00 0.00 0.00 46 1012.7
20260507215325 13 269 11.3 20.9 0.00 0.00 0.00 44 1012.6
20260507214822 13 333 9.7 20.9 0.00 0.00 0.00 45 1012.5
20260507214319 14 342 9.7 14.5 0.00 0.00 0.00 43 1012.4
20260507213814 13 281 4.8 17.7 0.00 0.00 0.00 44 1012.5
20260507213312 13 292 4.8 9.7 0.00 0.00 0.00 46 1012.5
20260507212808 13 253 6.4 16.1 0.00 0.00 0.00 46 1012.3
20260507212307 13 339 8.0 11.3 0.00 0.00 0.00 48 1012.4
20260507211801 12 236 6.4 14.5 0.00 0.00 0.00 48 1012.5
20260507211258 12 245 6.4 16.1 0.00 0.00 0.00 48 1012.5
20260507210754 12 309 8.0 11.3 0.00 0.00 0.00 48 1012.4
20260507210251 12 342 11.3 22.5 0.00 0.00 0.00 47 1012.5
20260507205748 13 222 4.8 14.5 0.00 0.00 0.00 47 1012.6
20260507205245 12 317 12.9 22.5 0.00 0.00 0.00 47 1012.6
20260507204740 13 229 4.8 9.7 0.00 0.00 0.00 46 1012.3
20260507204239 13 324 9.7 11.3 0.00 0.00 0.00 46 1012.5
20260507203736 13 280 4.8 11.3 0.00 0.00 0.00 48 1012.5
20260507203233 13 301 8.0 25.7 0.00 0.00 0.00 48 1012.4
20260507202730 13 330 8.0 11.3 0.00 0.00 0.00 46 1012.4
20260507202226 13 9 11.3 14.5 0.00 0.00 0.00 45 1012.6
20260507201720 13 308 4.8 14.5 0.00 0.00 0.00 47 1012.5
20260507201218 13 312 12.9 20.9 0.00 0.00 0.00 45 1012.7
20260507200708 13 355 11.3 17.7 0.00 0.00 0.00 47 1012.4
20260507200205 13 305 17.7 25.7 0.00 0.00 0.00 44 1012.5
20260507195701 13 231 8.0 14.5 0.00 0.00 0.00 45 1012.2
20260507195158 13 349 17.7 20.9 0.00 0.00 0.00 46 1012.4
20260507194655 12 340 16.1 22.5 0.00 0.00 0.00 48 1012.5
20260507194151 12 5 4.8 22.5 0.00 0.00 0.00 49 1012.6
20260507193647 12 343 6.4 22.5 0.00 0.00 0.00 50 1012.8
20260507193144 13 304 8.0 16.1 0.00 0.00 0.00 48 1012.7
20260507192640 13 333 16.1 29.0 0.00 0.00 0.00 48 1012.8
20260507192138 13 337 12.9 14.5 0.00 0.00 0.00 49 1012.8
20260507191633 12 320 4.8 14.5 0.00 0.00 0.00 49 1012.7
20260507191131 12 306 9.7 20.9 0.00 0.00 0.00 50 1012.8
20260507190628 13 298 24.1 32.2 0.00 0.00 0.00 48 1013.1
20260507190127 12 337 6.4 16.1 0.00 0.00 0.00 51 1013.0
20260507185625 12 33 8.0 12.9 0.00 0.00 0.00 50 1013.0
20260507185121 12 307 19.3 29.0 0.00 0.00 0.00 50 1013.2
20260507184619 12 295 4.8 9.7 0.00 0.00 0.00 51 1013.0
20260507184117 12 331 4.8 27.4 0.00 0.00 0.00 53 1013.2
20260507183613 12 313 12.9 24.1 0.00 0.00 0.00 51 1013.1
20260507183109 12 280 11.3 16.1 0.00 0.00 0.00 51 1013.2
20260507182606 12 343 11.3 17.7 0.00 0.00 0.00 49 1013.2
20260507182102 12 279 4.8 16.1 0.00 0.00 0.00 48 1013.1
20260507181559 12 229 1.6 11.3 0.00 0.00 0.00 50 1013.0
20260507181055 12 250 6.4 20.9 0.00 0.00 0.00 55 1013.3
20260507180551 12 216 11.3 20.9 0.00 0.00 0.00 52 1013.5
20260507180049 12 347 17.7 20.9 0.00 0.00 0.00 53 1013.1
20260507175545 12 249 8.0 17.7 0.00 0.00 0.00 55 1013.6
20260507175042 12 2 12.9 16.1 0.00 0.00 0.00 53 1013.5
20260507174539 11 258 8.0 20.9 0.00 0.00 0.00 56 1013.5
20260507174037 12 343 6.4 14.5 0.00 0.00 0.00 57 1013.5
20260507173534 11 310 9.7 20.9 0.00 0.00 0.00 56 1013.8
20260507173031 12 252 4.8 16.1 0.00 0.00 0.00 56 1013.6
20260507172527 12 264 11.3 22.5 0.00 0.00 0.00 54 1013.6
20260507172024 11 257 4.8 12.9 0.00 0.00 0.00 56 1013.8
20260507171519 11 300 9.7 22.5 0.00 0.00 0.00 57 1013.9
20260507171017 11 230 8.0 11.3 0.00 0.00 0.00 57 1014.0
20260507170513 11 296 6.4 9.7 0.00 0.00 0.00 56 1014.0
20260507170010 12 290 19.3 24.1 0.00 0.00 0.00 55 1014.0
20260507165506 12 245 1.6 14.5 0.00 0.00 0.00 57 1013.9
20260507165003 11 251 8.0 16.1 0.00 0.00 0.00 57 1014.2
20260507164459 11 263 9.7 22.5 0.00 0.00 0.00 58 1014.3
20260507163956 11 309 6.4 12.9 0.00 0.00 0.00 57 1014.1
20260507163453 11 229 14.5 20.9 0.00 0.00 0.00 57 1014.4
20260507162950 11 232 3.2 12.9 0.00 0.00 0.00 58 1014.2
20260507162446 11 331 4.8 9.7 0.00 0.00 0.00 60 1014.4
20260507161943 11 258 9.7 24.1 0.00 0.00 0.00 59 1014.1
20260507161439 10 237 8.0 17.7 0.00 0.00 0.00 58 1014.2
20260507160936 11 201 8.0 20.9 0.00 0.00 0.00 57 1014.1
20260507160432 11 184 8.0 12.9 0.00 0.00 0.00 56 1014.2
20260507155927 11 248 9.7 16.1 0.00 0.00 0.00 57 1014.1
20260507155424 10 224 4.8 14.5 0.00 0.00 0.00 55 1014.2